STARLINK-33804, 63511

Orbit data source: Space-Track

STARLINK-33804, 63511 is a payload satellite owned by SpaceX/Seattle (US) in LEO that was launched on Mon, 07 Apr 2025 UTC via an FALCON 9 launch vehicle from the Air Force Western Test Range (AFWTR). Payload-class satellites include a variety of spacecraft equipped with specific instruments for various scientific and technological missions. These include communications satellites like Starlink; space stations such as the ISS; scientific satellites like the Hubble; Earth observation satellites from companies like Planet Labs, Umbra, and HawkEye 360; GPS; miniature CubeSats for education and research; and military/defense satellites.

Loading next visibility...
Identifier
63511, 2025-071U
Orbit
LEO
Country
Flag of USUS
Related business
Manufacturer
SpaceX/Seattle
Mission
Operational Commercial Communications
Bus & Motor
STARLINK V2MO, Unknown motor
Mass
575 kg wet, ~530 kg dry
Launch date (UTC)
2025-04-07 (7 months ago)
Launch vehicle
FALCON 9
Launch site
Air Force Western Test Range (AFWTR)
Object type
Payload
Rocket body
Debris
Shape & HBR
Box + 2 Pan, 17.7 m
Radar Cross Section
36.964 m², Large (>1 m²)

Expand to show TLE details & history
Last TLE update: 8 hours ago

TLE from 8 hours ago
0 STARLINK-33804
1 63511U 25071U   25296.63999164  .00044953  00000-0  15190-2 0  9995
2 63511  53.1595  56.7029 0001951  90.3601 269.7624 15.30237117 31415
Epoch: 2025-10-23T15:21Z
TLE epoch observation values (Epoch: 2025-10-23T15:21:35.277Z)
Latitude
0.00002°
Longitude
154.00958°
Altitude
476.01 km
Speed
7.629 km/s
True Right ascension
03h 46m 48s
True Declination
0° 00' 00"
Sunlit
Object was in full shadow at epoch
Visualization orbit readout
Latitude
Unknown
Longitude
Unknown
Altitude
Unknown
Speed
Unknown
Apparent Right ascension
Unknown
Apparent Declination
Unknown
Sunlit
N/A
Visualization observer readout
Local Sidereal Time
18:17:33
Azimuth
Unknown
Elevation
Unknown
Doppler factor
Unknown
Orbital elements
Apogee altitude
476.698 km
Perigee altitude
474.024 km
Semi-major axis
6,853.498 km
Eccentricity
0.0002
Inclination
53.1595°
RAAN
56.7029°
Arg. of periapsis
90.3601°
True anomaly
269.74004°
Mean anomaly
269.7624°
Eccentric anomaly
269.75122°
Mean motion
3.82538 °/min
Orbital period
94.11 mins
BSTAR
0.001519
Loading maneuver chart data...
Computing Atmospheric mass density...
Loading historical data...
Loading historical data...
Loading historical data...
Loading historical data...
Loading historical data...
Loading historical data...
Loading historical data...

Documentation

Showing up to 5 results
|